DELTA 1 DEB, 10207

Orbit data source: Space-Track

DELTA 1 DEB, 10207 is space debris in LEO originally from a launch on Thu, 14 Jul 1977 UTC launched from the Air Force Eastern Test Range (AFETR). Debris objects in space refer to the collection of defunct objects orbiting the Earth. Examples of debris include non-operational satellites, rocket bodies, and fragments generated from explosions, collisions, or faulty payload assembly.

Loading next visibility...
Identifier
10207, 1977-065AL
Orbit
LEO
Last TLE update
18 hours ago
Origin
Manufacturer
Unknown
Mission
Spacecraft
Bus & Motor
Unknown
Mass
Unknown
Launch date (UTC)
1977-07-14 (48 years ago)
Launch vehicle
Unknown
Launch site
Air Force Eastern Test Range (AFETR)
Object type
Payload
Rocket body
Debris
Shape & HBR
Unknown
Radar Cross Section
Medium (>0.1 m² and <1 m²)

Expand to show TLE details & history

TLE from 18 hours ago
0 DELTA 1 DEB
1 10207U 77065AL  25128.48079176 -.00000453  00000-0 -96080-3 0  9995
2 10207  29.0824 244.6774 0676647 123.7742 242.9115 12.73042531202571
Epoch: 2025-05-08T11:32Z
Definitive object data (Epoch: 2025-05-08T11:32:20.408Z)
Latitude
Longitude
-154.9583°
Altitude
1,633.546 km
Speed
6.935 km/s
True Right ascension
16h 18m 42s
True Declination
0° 00' 00"
Sunlit
Object was in full shadow at TLE epoch
Visualization TLE readout
Latitude
25.52127°
Longitude
-36.84083°
Altitude
852.555 km
Speed
7.673 km/s
Apparent Right ascension
00h 37m 33s
Apparent Declination
-4° 54' 22"
Sunlit
Object is in daylight
Visualization observer readout
Local Sidereal Time
13:12:45
Azimuth
15.071° NNE
Elevation
-54.101°
Doppler factor
1
Orbital elements
Apogee altitude
1,897.769 km
Perigee altitude
848.775 km
Semi-major axis
7,751.409 km
Eccentricity
0.0676647
Inclination
29.0824°
RAAN
244.6774°
Arg. of periapsis
123.7742°
True anomaly
236.2794°
Mean anomaly
242.9115°
Eccentric anomaly
239.56869°
Mean motion
3.18033 °/min
BSTAR
-0.0009608
Orbital period
113.2 mins
Loading maneuver chart data...
Loading SW <> Apogee altitude chart data...
Loading historical data...
Loading historical data...
Loading historical data...
Loading historical data...
Loading historical data...
Loading historical data...
Loading historical data...

DELTA 1 DEB Visibility forecast

Observer location: undefined°, undefined°

Span
Click to sort rows by Start time (UTC) header in descending order
Start Az.
Max El. time (UTC)
Max El. Az.
Max El.
End time (UTC)
End Az.
9 mins2025-05-09 10:18:09.158Z196.517° SSW2025-05-09 10:23:09.158Z159.861° S17.172°2025-05-09 10:27:09.158Z125.021° SE
10 mins2025-05-09 12:18:09.158Z222.782° SW2025-05-09 12:23:09.158Z172.62° S26.16°2025-05-09 12:28:09.158Z116.596° SE
8 mins2025-05-09 14:19:09.158Z234.427° WSW2025-05-09 14:23:09.158Z182.553° SSW26.238°2025-05-09 14:27:09.158Z132.425° SE
5 mins2025-05-09 16:20:09.158Z225.875° WSW2025-05-09 16:22:09.158Z202.414° SSW16.063°2025-05-09 16:25:09.158Z167.694° S
|